| time (UTC) | temp F | wind direction | speed knots | gust knots | rain 1hr in | rain 24hr in | rain mn in | humidity % | barometer mb |
| 20260508164004 | 66 | 149 | 0.9 | 5.2 | 0.00 | 0.11 | 0.00 | 43 | 1016.8 |
| 20260508163509 | 66 | 108 | 0.9 | 5.2 | 0.00 | 0.11 | 0.00 | 44 | 1016.9 |
| 20260508163015 | 66 | 144 | 0.0 | 3.5 | 0.00 | 0.11 | 0.00 | 44 | 1017.0 |
| 20260508162506 | 65 | 343 | 0.9 | 3.5 | 0.00 | 0.11 | 0.00 | 45 | 1017.1 |
| 20260508162006 | 65 | 360 | 0.9 | 3.5 | 0.00 | 0.11 | 0.00 | 41 | 1017.3 |
| 20260508161523 | 65 | 127 | 0.9 | 3.5 | 0.00 | 0.11 | 0.00 | 51 | 1017.3 |
| 20260508161002 | 65 | 184 | 0.0 | 5.2 | 0.00 | 0.11 | 0.00 | 44 | 1017.3 |
| 20260508160505 | 64 | 237 | 0.9 | 5.2 | 0.00 | 0.11 | 0.00 | 50 | 1017.4 |
| 20260508160020 | 62 | 63 | 0.9 | 5.2 | 0.00 | 0.11 | 0.00 | 46 | 1017.4 |
| 20260508155505 | 64 | 109 | 1.7 | 5.2 | 0.00 | 0.11 | 0.00 | 52 | 1017.5 |
| 20260508155009 | 64 | 226 | 0.0 | 4.3 | 0.00 | 0.11 | 0.00 | 51 | 1017.5 |
| 20260508154516 | 64 | 30 | 0.0 | 3.5 | 0.00 | 0.11 | 0.00 | 48 | 1017.5 |
| 20260508154003 | 63 | 144 | 0.0 | 3.5 | 0.00 | 0.11 | 0.00 | 49 | 1017.5 |
| 20260508153507 | 62 | 144 | 0.9 | 3.5 | 0.00 | 0.11 | 0.00 | 53 | 1017.5 |
| 20260508153015 | 61 | 78 | 0.9 | 3.5 | 0.00 | 0.11 | 0.00 | 52 | 1017.6 |
| 20260508152505 | 61 | 48 | 1.7 | 3.5 | 0.00 | 0.11 | 0.00 | 47 | 1017.6 |
| 20260508152008 | 61 | 67 | 0.0 | 2.6 | 0.00 | 0.11 | 0.00 | 51 | 1017.7 |
| 20260508151515 | 60 | 5 | 0.0 | 2.6 | 0.00 | 0.11 | 0.00 | 54 | 1017.6 |
| 20260508151008 | 60 | 40 | 0.9 | 2.6 | 0.00 | 0.11 | 0.00 | 50 | 1017.7 |
| 20260508150508 | 60 | 15 | 0.9 | 4.3 | 0.00 | 0.11 | 0.00 | 60 | 1017.7 |
| 20260508150022 | 60 | 355 | 1.7 | 4.3 | 0.00 | 0.11 | 0.00 | 51 | 1017.7 |
| 20260508145505 | 61 | 334 | 0.9 | 2.6 | 0.00 | 0.11 | 0.00 | 52 | 1017.8 |
| 20260508145006 | 60 | 287 | 0.0 | 2.6 | 0.00 | 0.11 | 0.00 | 58 | 1017.7 |
| 20260508144505 | 60 | 49 | 0.0 | 2.6 | 0.00 | 0.11 | 0.00 | 58 | 1017.8 |
| 20260508144004 | 59 | 64 | 1.7 | 2.6 | 0.00 | 0.11 | 0.00 | 52 | 1017.7 |
| 20260508143506 | 59 | 329 | 0.9 | 2.6 | 0.00 | 0.11 | 0.00 | 59 | 1017.7 |
| 20260508143016 | 59 | 26 | 0.9 | 2.6 | 0.00 | 0.11 | 0.00 | 59 | 1017.8 |
| 20260508142504 | 59 | 5 | 0.0 | 3.5 | 0.00 | 0.11 | 0.00 | 62 | 1017.8 |
| 20260508142008 | 59 | 315 | 0.0 | 3.5 | 0.00 | 0.11 | 0.00 | 64 | 1017.8 |
| 20260508141514 | 58 | 329 | 0.9 | 3.5 | 0.00 | 0.11 | 0.00 | 64 | 1017.7 |
| 20260508141008 | 57 | 35 | 1.7 | 3.5 | 0.00 | 0.11 | 0.00 | 66 | 1017.8 |
| 20260508140506 | 57 | 19 | 0.9 | 2.6 | 0.00 | 0.11 | 0.00 | 68 | 1017.8 |
| 20260508140006 | 56 | 30 | 0.0 | 2.6 | 0.00 | 0.11 | 0.00 | 76 | 1017.6 |
| 20260508135507 | 56 | 101 | 0.0 | 2.6 | 0.00 | 0.11 | 0.00 | 78 | 1017.7 |
| 20260508135011 | 55 | 94 | 0.0 | 2.6 | 0.00 | 0.11 | 0.00 | 82 | 1017.7 |
| 20260508134506 | 54 | 92 | 0.0 | 0.9 | 0.00 | 0.11 | 0.00 | 84 | 1017.8 |
| 20260508134006 | 54 | 5 | 0.0 | 0.9 | 0.00 | 0.11 | 0.00 | 84 | 1017.8 |
| 20260508133509 | 53 | 64 | 0.0 | 0.9 | 0.00 | 0.11 | 0.00 | 87 | 1017.7 |
| 20260508133009 | 52 | 355 | 0.0 | 0.9 | 0.00 | 0.11 | 0.00 | 90 | 1017.7 |
| 20260508132505 | 52 | 83 | 0.0 | 0.9 | 0.00 | 0.11 | 0.00 | 93 | 1017.7 |
| 20260508132008 | 51 | 142 | 0.0 | 0.9 | 0.00 | 0.11 | 0.00 | 94 | 1017.7 |
| 20260508131508 | 51 | 332 | 0.0 | 1.7 | 0.00 | 0.11 | 0.00 | 95 | 1017.8 |
| 20260508131012 | 50 | 338 | 0.0 | 1.7 | 0.00 | 0.11 | 0.00 | 96 | 1017.9 |
| 20260508130507 | 50 | 355 | 0.0 | 0.9 | 0.00 | 0.11 | 0.00 | 96 | 1017.9 |
| 20260508130014 | 50 | 309 | 0.0 | 2.6 | 0.00 | 0.11 | 0.00 | 96 | 1017.9 |
| 20260508125511 | 49 | 336 | 0.0 | 2.6 | 0.00 | 0.11 | 0.00 | 96 | 1017.9 |
| 20260508125009 | 49 | 336 | 0.9 | 2.6 | 0.00 | 0.11 | 0.00 | 96 | 1017.9 |
| 20260508124513 | 49 | 39 | 0.9 | 1.7 | 0.00 | 0.11 | 0.00 | 97 | 1017.9 |
| 20260508124011 | 48 | 51 | 0.0 | 1.7 | 0.00 | 0.11 | 0.00 | 97 | 1017.8 |
| 20260508123509 | 48 | 18 | 0.0 | 1.7 | 0.00 | 0.11 | 0.00 | 97 | 1017.7 |
| 20260508123013 | 48 | 28 | 0.0 | 2.6 | 0.00 | 0.11 | 0.00 | 97 | 1017.7 |
| 20260508122509 | 47 | 24 | 0.0 | 2.6 | 0.00 | 0.11 | 0.00 | 97 | 1017.7 |
| 20260508122011 | 47 | 322 | 0.9 | 2.6 | 0.00 | 0.11 | 0.00 | 97 | 1017.7 |
| 20260508121518 | 47 | 350 | 0.0 | 1.7 | 0.00 | 0.11 | 0.00 | 97 | 1017.5 |
| 20260508121008 | 46 | 350 | 0.0 | 0.0 | 0.00 | 0.11 | 0.00 | 97 | 1017.5 |
| 20260508120507 | 46 | 350 | 0.0 | 0.0 | 0.00 | 0.11 | 0.00 | 97 | 1017.3 |
| 20260508120019 | 45 | 350 | 0.0 | 0.0 | 0.00 | 0.11 | 0.00 | 97 | 1017.2 |
| 20260508115502 | 45 | 350 | 0.0 | 0.0 | 0.00 | 0.11 | 0.00 | 96 | 1017.1 |
| 20260508115002 | 44 | 350 | 0.0 | 0.0 | 0.00 | 0.11 | 0.00 | 96 | 1017.1 |
| 20260508114527 | 44 | 350 | 0.0 | 0.0 | 0.00 | 0.11 | 0.00 | 96 | 1016.9 |
| 20260508114001 | 44 | 350 | 0.0 | 0.0 | 0.00 | 0.11 | 0.00 | 96 | 1016.8 |
| 20260508113505 | 44 | 350 | 0.0 | 0.0 | 0.00 | 0.11 | 0.00 | 96 | 1016.8 |
| 20260508113018 | 44 | 350 | 0.0 | 0.0 | 0.00 | 0.11 | 0.00 | 96 | 1016.7 |
| 20260508112503 | 44 | 350 | 0.0 | 0.0 | 0.00 | 0.11 | 0.00 | 96 | 1016.5 |
| 20260508112006 | 43 | 350 | 0.0 | 0.0 | 0.00 | 0.11 | 0.00 | 96 | 1016.5 |
| 20260508111515 | 43 | 350 | 0.0 | 0.0 | 0.00 | 0.11 | 0.00 | 96 | 1016.4 |
| 20260508111004 | 43 | 350 | 0.0 | 0.0 | 0.00 | 0.11 | 0.00 | 96 | 1016.3 |
| 20260508110504 | 43 | 350 | 0.0 | 0.0 | 0.00 | 0.11 | 0.00 | 96 | 1016.2 |
| 20260508110019 | 43 | 350 | 0.0 | 0.0 | 0.00 | 0.11 | 0.00 | 95 | 1016.1 |
| 20260508105503 | 43 | 350 | 0.0 | 0.0 | 0.00 | 0.11 | 0.00 | 95 | 1016.1 |
| 20260508105003 | 43 | 350 | 0.0 | 0.0 | 0.00 | 0.11 | 0.00 | 95 | 1015.9 |
| 20260508104518 | 43 | 350 | 0.0 | 0.0 | 0.00 | 0.11 | 0.00 | 96 | 1015.8 |
| 20260508104004 | 43 | 350 | 0.0 | 0.0 | 0.00 | 0.11 | 0.00 | 96 | 1015.8 |
| 20260508103505 | 43 | 350 | 0.0 | 0.0 | 0.00 | 0.11 | 0.00 | 96 | 1015.7 |
| 20260508103018 | 44 | 350 | 0.0 | 0.0 | 0.00 | 0.12 | 0.00 | 96 | 1015.7 |
| 20260508102503 | 44 | 350 | 0.0 | 0.0 | 0.00 | 0.12 | 0.00 | 96 | 1015.7 |
| 20260508102006 | 44 | 350 | 0.0 | 0.0 | 0.00 | 0.12 | 0.00 | 96 | 1015.7 |
| 20260508101530 | 44 | 350 | 0.0 | 0.0 | 0.00 | 0.12 | 0.00 | 96 | 1015.6 |
| 20260508101003 | 44 | 350 | 0.0 | 0.0 | 0.00 | 0.12 | 0.00 | 96 | 1015.7 |
| 20260508100508 | 44 | 350 | 0.0 | 0.0 | 0.00 | 0.12 | 0.00 | 96 | 1015.6 |
| 20260508100032 | 44 | 350 | 0.0 | 0.0 | 0.00 | 0.12 | 0.00 | 95 | 1015.5 |
| 20260508095506 | 44 | 350 | 0.0 | 0.0 | 0.00 | 0.12 | 0.00 | 95 | 1015.4 |
| 20260508095007 | 44 | 350 | 0.0 | 0.0 | 0.00 | 0.12 | 0.00 | 95 | 1015.4 |
| 20260508094526 | 44 | 350 | 0.0 | 0.0 | 0.00 | 0.12 | 0.00 | 95 | 1015.3 |
| 20260508094003 | 44 | 350 | 0.0 | 0.0 | 0.00 | 0.12 | 0.00 | 95 | 1015.3 |
| 20260508093507 | 44 | 350 | 0.0 | 0.0 | 0.00 | 0.12 | 0.00 | 96 | 1015.3 |
| 20260508093001 | 45 | 350 | 0.0 | 0.0 | 0.00 | 0.12 | 0.00 | 96 | 1015.3 |
| 20260508092509 | 45 | 350 | 0.0 | 0.9 | 0.00 | 0.12 | 0.00 | 95 | 1015.2 |
| 20260508092007 | 45 | 350 | 0.0 | 0.9 | 0.00 | 0.13 | 0.00 | 95 | 1015.2 |
| 20260508091504 | 45 | 350 | 0.0 | 0.9 | 0.00 | 0.17 | 0.00 | 95 | 1015.1 |
| 20260508091005 | 45 | 350 | 0.0 | 0.9 | 0.00 | 0.19 | 0.00 | 96 | 1015.1 |
| 20260508090507 | 45 | 350 | 0.0 | 2.6 | 0.00 | 0.19 | 0.00 | 96 | 1015.0 |
| 20260508090005 | 45 | 342 | 0.0 | 2.6 | 0.00 | 0.20 | 0.00 | 95 | 1014.9 |
| 20260508085510 | 45 | 355 | 0.0 | 1.7 | 0.00 | 0.21 | 0.00 | 95 | 1014.9 |
| 20260508085008 | 45 | 360 | 0.0 | 0.9 | 0.00 | 0.22 | 0.00 | 95 | 1014.9 |
| 20260508084504 | 46 | 56 | 0.0 | 0.9 | 0.00 | 0.23 | 0.00 | 95 | 1014.8 |
| 20260508084006 | 46 | 56 | 0.0 | 0.0 | 0.00 | 0.24 | 0.00 | 95 | 1014.6 |
| 20260508083506 | 46 | 56 | 0.0 | 0.9 | 0.00 | 0.24 | 0.00 | 95 | 1014.6 |
| 20260508083005 | 46 | 57 | 0.0 | 0.9 | 0.00 | 0.24 | 0.00 | 95 | 1014.5 |
| 20260508082505 | 46 | 46 | 0.0 | 0.0 | 0.00 | 0.24 | 0.00 | 95 | 1014.4 |
| 20260508082008 | 46 | 46 | 0.0 | 0.0 | 0.00 | 0.25 | 0.00 | 95 | 1014.4 |
| 20260508081505 | 46 | 46 | 0.0 | 0.0 | 0.00 | 0.25 | 0.00 | 95 | 1014.3 |
| 20260508081007 | 46 | 46 | 0.0 | 0.0 | 0.00 | 0.25 | 0.00 | 95 | 1014.2 |
| 20260508080507 | 47 | 46 | 0.0 | 0.0 | 0.00 | 0.25 | 0.00 | 95 | 1014.2 |
| 20260508080004 | 47 | 46 | 0.0 | 0.0 | 0.00 | 0.25 | 0.00 | 95 | 1014.2 |
| 20260508075506 | 47 | 46 | 0.0 | 0.0 | 0.00 | 0.25 | 0.00 | 95 | 1014.2 |
| 20260508075008 | 47 | 46 | 0.0 | 0.0 | 0.00 | 0.25 | 0.00 | 96 | 1014.2 |
| 20260508074513 | 47 | 46 | 0.0 | 0.0 | 0.00 | 0.25 | 0.00 | 96 | 1014.2 |
| 20260508074009 | 47 | 45 | 0.0 | 0.0 | 0.00 | 0.25 | 0.00 | 96 | 1014.1 |
| 20260508073511 | 47 | 45 | 0.0 | 0.0 | 0.00 | 0.25 | 0.00 | 95 | 1014.1 |
| 20260508073003 | 47 | 45 | 0.0 | 0.9 | 0.00 | 0.25 | 0.00 | 96 | 1014.1 |
| 20260508072508 | 47 | 45 | 0.0 | 0.9 | 0.00 | 0.25 | 0.00 | 96 | 1014.1 |
| 20260508072010 | 47 | 45 | 0.0 | 0.9 | 0.00 | 0.25 | 0.00 | 96 | 1014.0 |
| 20260508071508 | 47 | 60 | 0.0 | 0.0 | 0.00 | 0.25 | 0.00 | 96 | 1014.0 |
| 20260508071007 | 46 | 60 | 0.0 | 0.0 | 0.00 | 0.25 | 0.00 | 96 | 1014.0 |
| 20260508070507 | 46 | 60 | 0.0 | 0.0 | 0.00 | 0.25 | 0.00 | 95 | 1013.9 |
| 20260508070006 | 46 | 60 | 0.0 | 0.0 | 0.00 | 0.25 | 0.00 | 95 | 1013.8 |
| 20260508065509 | 46 | 60 | 0.0 | 0.0 | 0.00 | 0.25 | 0.00 | 95 | 1013.8 |
| 20260508065008 | 46 | 60 | 0.0 | 0.0 | 0.00 | 0.25 | 0.00 | 95 | 1013.8 |
| 20260508064534 | 46 | 60 | 0.0 | 0.0 | 0.00 | 0.25 | 0.00 | 95 | 1013.9 |
| 20260508064005 | 46 | 60 | 0.0 | 0.9 | 0.00 | 0.25 | 0.00 | 95 | 1013.8 |
| 20260508063507 | 46 | 60 | 0.0 | 0.9 | 0.00 | 0.25 | 0.00 | 95 | 1013.8 |
| 20260508063010 | 46 | 60 | 0.0 | 0.9 | 0.00 | 0.25 | 0.00 | 95 | 1013.7 |
| 20260508062511 | 46 | 60 | 0.0 | 0.0 | 0.00 | 0.25 | 0.00 | 95 | 1013.6 |
| 20260508062009 | 46 | 60 | 0.0 | 0.0 | 0.00 | 0.25 | 0.00 | 96 | 1013.7 |
| 20260508061510 | 46 | 60 | 0.0 | 0.0 | 0.00 | 0.25 | 0.00 | 95 | 1013.7 |
| 20260508061011 | 46 | 60 | 0.0 | 0.9 | 0.00 | 0.25 | 0.00 | 96 | 1013.6 |
| 20260508060508 | 46 | 60 | 0.0 | 0.9 | 0.00 | 0.25 | 0.00 | 95 | 1013.6 |
| 20260508060011 | 45 | 172 | 0.0 | 0.0 | 0.00 | 0.25 | 0.00 | 95 | 1013.6 |
| 20260508055506 | 45 | 172 | 0.0 | 0.0 | 0.00 | 0.25 | 0.00 | 95 | 1013.5 |
| 20260508055008 | 45 | 172 | 0.0 | 0.0 | 0.00 | 0.25 | 0.00 | 95 | 1013.5 |
| 20260508054519 | 45 | 172 | 0.0 | 0.0 | 0.00 | 0.25 | 0.00 | 95 | 1013.4 |
| 20260508054009 | 45 | 172 | 0.0 | 0.0 | 0.00 | 0.25 | 0.00 | 95 | 1013.4 |
| 20260508053509 | 45 | 172 | 0.0 | 0.0 | 0.00 | 0.25 | 0.00 | 95 | 1013.3 |
| 20260508053010 | 45 | 172 | 0.0 | 0.0 | 0.00 | 0.25 | 0.00 | 95 | 1013.4 |
| 20260508052507 | 45 | 172 | 0.0 | 0.0 | 0.00 | 0.25 | 0.00 | 95 | 1013.4 |
| 20260508052012 | 46 | 172 | 0.0 | 0.0 | 0.00 | 0.25 | 0.00 | 94 | 1013.4 |
| 20260508051523 | 46 | 172 | 0.0 | 0.0 | 0.00 | 0.25 | 0.00 | 94 | 1013.3 |
| 20260508051008 | 46 | 172 | 0.0 | 0.0 | 0.00 | 0.25 | 0.00 | 94 | 1013.3 |
| 20260508050509 | 46 | 172 | 0.0 | 0.0 | 0.00 | 0.25 | 0.00 | 95 | 1013.3 |
| 20260508050018 | 46 | 172 | 0.0 | 0.0 | 0.00 | 0.25 | 0.00 | 95 | 1013.3 |
| 20260508045507 | 46 | 172 | 0.0 | 0.0 | 0.00 | 0.25 | 0.00 | 94 | 1013.4 |
| 20260508045010 | 46 | 172 | 0.0 | 0.0 | 0.00 | 0.25 | 0.00 | 94 | 1013.3 |
| 20260508044518 | 46 | 172 | 0.0 | 0.0 | 0.00 | 0.25 | 0.00 | 95 | 1013.2 |
| 20260508044012 | 47 | 172 | 0.0 | 0.0 | 0.00 | 0.25 | 0.00 | 94 | 1013.1 |
| 20260508043509 | 47 | 172 | 0.0 | 0.0 | 0.00 | 0.25 | 0.00 | 94 | 1013.1 |
| 20260508043016 | 47 | 172 | 0.0 | 0.0 | 0.00 | 0.25 | 0.00 | 94 | 1013.1 |
| 20260508042507 | 47 | 171 | 0.0 | 0.0 | 0.00 | 0.25 | 0.00 | 94 | 1013.0 |
| 20260508042011 | 47 | 171 | 0.0 | 0.0 | 0.00 | 0.25 | 0.00 | 94 | 1013.1 |
| 20260508041533 | 48 | 171 | 0.0 | 0.0 | 0.00 | 0.25 | 0.00 | 94 | 1013.1 |
| 20260508041007 | 48 | 171 | 0.0 | 0.0 | 0.00 | 0.25 | 0.00 | 95 | 1013.1 |
| 20260508040511 | 48 | 171 | 0.0 | 0.0 | 0.00 | 0.25 | 0.00 | 94 | 1012.9 |
| 20260508040017 | 48 | 171 | 0.0 | 0.0 | 0.00 | 0.25 | 0.00 | 94 | 1012.9 |
| 20260508035515 | 48 | 171 | 0.0 | 0.0 | 0.00 | 0.25 | 0.25 | 94 | 1012.9 |
| 20260508035010 | 48 | 171 | 0.0 | 0.0 | 0.00 | 0.25 | 0.25 | 94 | 1012.9 |
| 20260508034525 | 49 | 171 | 0.0 | 0.0 | 0.00 | 0.25 | 0.25 | 95 | 1012.8 |
| 20260508034009 | 48 | 171 | 0.0 | 0.0 | 0.00 | 0.25 | 0.25 | 95 | 1012.9 |
| 20260508033507 | 48 | 171 | 0.0 | 0.0 | 0.00 | 0.25 | 0.25 | 94 | 1012.8 |
| 20260508033020 | 48 | 171 | 0.0 | 0.0 | 0.00 | 0.25 | 0.25 | 94 | 1012.8 |
| 20260508032510 | 48 | 171 | 0.0 | 0.0 | 0.00 | 0.25 | 0.25 | 95 | 1012.8 |
| 20260508032005 | 48 | 171 | 0.0 | 0.0 | 0.00 | 0.25 | 0.25 | 94 | 1012.8 |
| 20260508031522 | 48 | 171 | 0.0 | 0.0 | 0.00 | 0.25 | 0.25 | 94 | 1012.8 |
| 20260508031011 | 48 | 171 | 0.0 | 0.0 | 0.00 | 0.25 | 0.25 | 94 | 1012.8 |
| 20260508030512 | 49 | 171 | 0.0 | 0.0 | 0.00 | 0.25 | 0.25 | 94 | 1012.9 |
| 20260508030004 | 49 | 171 | 0.0 | 0.0 | 0.00 | 0.25 | 0.25 | 94 | 1012.7 |
| 20260508025504 | 49 | 171 | 0.0 | 0.0 | 0.00 | 0.25 | 0.25 | 94 | 1012.7 |
| 20260508025007 | 49 | 171 | 0.0 | 0.0 | 0.00 | 0.25 | 0.25 | 94 | 1012.6 |
| 20260508024505 | 49 | 171 | 0.0 | 0.0 | 0.00 | 0.25 | 0.25 | 94 | 1012.6 |
| 20260508024005 | 49 | 171 | 0.0 | 0.0 | 0.00 | 0.25 | 0.25 | 94 | 1012.6 |
| 20260508023506 | 49 | 171 | 0.0 | 0.0 | 0.00 | 0.25 | 0.25 | 94 | 1012.5 |
| 20260508023004 | 48 | 171 | 0.0 | 0.0 | 0.00 | 0.25 | 0.25 | 94 | 1012.5 |
| 20260508022504 | 48 | 171 | 0.0 | 0.0 | 0.00 | 0.25 | 0.25 | 94 | 1012.5 |
| 20260508022012 | 48 | 171 | 0.0 | 0.0 | 0.00 | 0.25 | 0.25 | 94 | 1012.4 |
| 20260508021504 | 48 | 171 | 0.0 | 0.0 | 0.00 | 0.25 | 0.25 | 94 | 1012.4 |
| 20260508021003 | 48 | 171 | 0.0 | 0.0 | 0.00 | 0.25 | 0.25 | 93 | 1012.5 |
| 20260508020511 | 49 | 171 | 0.0 | 0.0 | 0.00 | 0.25 | 0.25 | 93 | 1012.4 |
| 20260508020004 | 49 | 171 | 0.0 | 0.0 | 0.00 | 0.25 | 0.25 | 93 | 1012.3 |
| 20260508015503 | 49 | 171 | 0.0 | 0.0 | 0.00 | 0.25 | 0.25 | 93 | 1012.1 |
| 20260508015012 | 49 | 171 | 0.0 | 0.0 | 0.00 | 0.25 | 0.25 | 93 | 1011.9 |
| 20260508014506 | 49 | 171 | 0.0 | 0.0 | 0.00 | 0.25 | 0.25 | 93 | 1011.9 |
| 20260508014013 | 49 | 171 | 0.0 | 0.0 | 0.00 | 0.25 | 0.25 | 93 | 1011.9 |
| 20260508013506 | 49 | 171 | 0.0 | 0.0 | 0.00 | 0.25 | 0.25 | 93 | 1011.9 |
| 20260508013021 | 50 | 171 | 0.0 | 0.0 | 0.00 | 0.25 | 0.25 | 93 | 1012.1 |
| 20260508012506 | 50 | 171 | 0.0 | 0.0 | 0.00 | 0.25 | 0.25 | 93 | 1012.0 |
| 20260508012012 | 50 | 171 | 0.0 | 0.0 | 0.00 | 0.25 | 0.25 | 93 | 1012.0 |
| 20260508011505 | 50 | 171 | 0.0 | 0.0 | 0.00 | 0.25 | 0.25 | 93 | 1012.0 |
| 20260508011002 | 50 | 171 | 0.0 | 0.0 | 0.00 | 0.25 | 0.25 | 93 | 1011.9 |
| 20260508010508 | 51 | 171 | 0.0 | 0.0 | 0.00 | 0.25 | 0.25 | 93 | 1011.9 |
| 20260508010009 | 51 | 171 | 0.0 | 0.0 | 0.00 | 0.25 | 0.25 | 93 | 1012.0 |
| 20260508005502 | 51 | 171 | 0.0 | 0.0 | 0.00 | 0.25 | 0.25 | 93 | 1012.0 |
| 20260508005006 | 51 | 171 | 0.0 | 0.0 | 0.00 | 0.25 | 0.25 | 93 | 1012.0 |
| 20260508004504 | 51 | 171 | 0.0 | 0.0 | 0.00 | 0.25 | 0.25 | 93 | 1011.9 |
| 20260508004006 | 51 | 171 | 0.0 | 0.0 | 0.00 | 0.25 | 0.25 | 93 | 1011.9 |
| 20260508003509 | 52 | 171 | 0.0 | 0.0 | 0.00 | 0.25 | 0.25 | 93 | 1011.9 |
| 20260508003005 | 52 | 171 | 0.0 | 0.0 | 0.00 | 0.25 | 0.25 | 93 | 1011.7 |
| 20260508002507 | 52 | 171 | 0.0 | 0.0 | 0.00 | 0.25 | 0.25 | 93 | 1011.8 |
| 20260508002010 | 52 | 171 | 0.0 | 0.0 | 0.00 | 0.25 | 0.25 | 92 | 1011.8 |
| 20260508001505 | 52 | 171 | 0.0 | 0.0 | 0.00 | 0.25 | 0.25 | 92 | 1011.8 |
| 20260508001004 | 52 | 171 | 0.0 | 0.0 | 0.00 | 0.25 | 0.25 | 92 | 1011.6 |
| 20260508000515 | 52 | 171 | 0.0 | 0.0 | 0.00 | 0.25 | 0.25 | 92 | 1011.6 |
| 20260508000006 | 52 | 171 | 0.0 | 0.0 | 0.00 | 0.25 | 0.25 | 92 | 1011.4 |
| 20260507235507 | 52 | 171 | 0.0 | 0.0 | 0.00 | 0.25 | 0.25 | 92 | 1011.3 |
| 20260507235010 | 52 | 171 | 0.0 | 0.0 | 0.00 | 0.25 | 0.25 | 91 | 1011.3 |
| 20260507234513 | 52 | 171 | 0.0 | 0.0 | 0.00 | 0.25 | 0.25 | 91 | 1011.2 |
| 20260507234006 | 52 | 171 | 0.0 | 0.0 | 0.00 | 0.25 | 0.25 | 91 | 1011.2 |
| 20260507233510 | 52 | 171 | 0.0 | 0.0 | 0.00 | 0.25 | 0.25 | 91 | 1011.0 |
| 20260507233010 | 53 | 171 | 0.0 | 0.0 | 0.00 | 0.25 | 0.25 | 91 | 1011.0 |
| 20260507232507 | 53 | 171 | 0.0 | 0.9 | 0.00 | 0.25 | 0.25 | 91 | 1011.1 |
| 20260507232010 | 53 | 171 | 0.0 | 0.9 | 0.00 | 0.25 | 0.25 | 91 | 1011.1 |
| 20260507231508 | 53 | 170 | 0.0 | 0.9 | 0.00 | 0.25 | 0.25 | 91 | 1010.9 |
| 20260507231008 | 53 | 159 | 0.0 | 0.9 | 0.00 | 0.25 | 0.25 | 91 | 1010.9 |
| 20260507230508 | 53 | 183 | 0.0 | 0.9 | 0.00 | 0.25 | 0.25 | 91 | 1011.0 |
| 20260507230008 | 53 | 183 | 0.0 | 0.9 | 0.00 | 0.25 | 0.25 | 91 | 1010.7 |
| 20260507225508 | 53 | 183 | 0.0 | 0.0 | 0.00 | 0.25 | 0.25 | 91 | 1010.9 |
| 20260507225008 | 53 | 183 | 0.0 | 0.0 | 0.00 | 0.25 | 0.25 | 90 | 1010.9 |
| 20260507224514 | 53 | 183 | 0.0 | 0.0 | 0.00 | 0.25 | 0.25 | 91 | 1010.8 |
| 20260507224007 | 53 | 183 | 0.0 | 0.0 | 0.00 | 0.25 | 0.25 | 90 | 1010.9 |
| 20260507223511 | 53 | 183 | 0.0 | 0.9 | 0.00 | 0.25 | 0.25 | 90 | 1010.9 |
| 20260507223013 | 53 | 183 | 0.0 | 0.9 | 0.00 | 0.25 | 0.25 | 90 | 1011.1 |
| 20260507222516 | 53 | 114 | 0.0 | 1.7 | 0.00 | 0.25 | 0.25 | 89 | 1011.0 |
| 20260507222014 | 53 | 117 | 0.0 | 1.7 | 0.00 | 0.25 | 0.25 | 90 | 1010.9 |
| 20260507221510 | 53 | 112 | 0.0 | 1.7 | 0.00 | 0.25 | 0.25 | 90 | 1010.9 |
| 20260507221010 | 53 | 187 | 0.0 | 0.9 | 0.00 | 0.25 | 0.25 | 91 | 1010.9 |
| 20260507220515 | 53 | 189 | 0.0 | 3.5 | 0.00 | 0.25 | 0.25 | 91 | 1010.9 |
| 20260507220013 | 53 | 126 | 0.0 | 3.5 | 0.00 | 0.25 | 0.25 | 90 | 1010.6 |
| 20260507215506 | 53 | 116 | 0.9 | 3.5 | 0.00 | 0.25 | 0.25 | 90 | 1010.5 |
| 20260507215008 | 53 | 160 | 0.0 | 2.6 | 0.00 | 0.25 | 0.25 | 91 | 1010.6 |
| 20260507214519 | 53 | 104 | 0.9 | 2.6 | 0.00 | 0.25 | 0.25 | 91 | 1010.7 |
| 20260507214012 | 54 | 155 | 0.9 | 2.6 | 0.00 | 0.25 | 0.25 | 92 | 1010.9 |
| 20260507213508 | 54 | 179 | 0.0 | 2.6 | 0.01 | 0.25 | 0.25 | 92 | 1010.7 |
| 20260507213017 | 54 | 134 | 0.0 | 3.5 | 0.02 | 0.25 | 0.25 | 92 | 1010.7 |
| 20260507212511 | 54 | 169 | 0.0 | 3.5 | 0.03 | 0.25 | 0.25 | 92 | 1010.6 |
| 20260507212008 | 54 | 261 | 0.0 | 2.6 | 0.04 | 0.25 | 0.25 | 92 | 1010.7 |
| 20260507211512 | 54 | 241 | 0.0 | 3.5 | 0.05 | 0.25 | 0.25 | 92 | 1010.3 |
| 20260507211009 | 53 | 113 | 0.9 | 3.5 | 0.06 | 0.25 | 0.25 | 92 | 1010.3 |
| 20260507210508 | 53 | 125 | 0.0 | 3.5 | 0.06 | 0.25 | 0.25 | 92 | 1010.6 |
| 20260507210016 | 53 | 160 | 0.0 | 3.5 | 0.07 | 0.25 | 0.25 | 92 | 1010.7 |
| 20260507205507 | 53 | 126 | 0.0 | 1.7 | 0.07 | 0.25 | 0.25 | 92 | 1010.6 |
| 20260507205009 | 53 | 107 | 0.0 | 0.0 | 0.07 | 0.25 | 0.25 | 92 | 1010.7 |
| 20260507204515 | 53 | 107 | 0.0 | 0.9 | 0.09 | 0.25 | 0.25 | 92 | 1011.1 |
| 20260507204009 | 52 | 107 | 0.0 | 0.9 | 0.11 | 0.25 | 0.25 | 91 | 1011.1 |
| 20260507203510 | 53 | 107 | 0.0 | 0.9 | 0.10 | 0.24 | 0.24 | 91 | 1011.1 |
| 20260507203016 | 53 | 117 | 0.0 | 0.9 | 0.09 | 0.23 | 0.23 | 91 | 1011.2 |
| 20260507202507 | 53 | 101 | 0.0 | 0.9 | 0.08 | 0.22 | 0.22 | 90 | 1011.0 |
| 20260507202015 | 53 | 102 | 0.0 | 0.9 | 0.07 | 0.21 | 0.21 | 90 | 1011.0 |
| 20260507201518 | 53 | 112 | 0.0 | 0.0 | 0.06 | 0.20 | 0.20 | 90 | 1011.2 |
| 20260507201007 | 53 | 112 | 0.0 | 0.0 | 0.05 | 0.19 | 0.19 | 90 | 1011.1 |
| 20260507200512 | 54 | 112 | 0.0 | 0.0 | 0.05 | 0.19 | 0.19 | 89 | 1011.0 |
| 20260507200020 | 54 | 111 | 0.0 | 0.0 | 0.04 | 0.18 | 0.18 | 89 | 1011.0 |
| 20260507195512 | 54 | 88 | 0.0 | 0.0 | 0.04 | 0.18 | 0.18 | 88 | 1010.9 |
| 20260507195014 | 54 | 87 | 0.0 | 0.0 | 0.04 | 0.18 | 0.18 | 87 | 1011.3 |
| 20260507194520 | 54 | 157 | 0.0 | 0.0 | 0.02 | 0.16 | 0.16 | 86 | 1011.3 |
| 20260507194009 | 54 | 157 | 0.0 | 2.6 | 0.00 | 0.14 | 0.14 | 86 | 1011.1 |
| 20260507193509 | 54 | 149 | 0.0 | 2.6 | 0.00 | 0.14 | 0.14 | 85 | 1011.0 |
| 20260507193023 | 54 | 149 | 0.9 | 2.6 | 0.00 | 0.14 | 0.14 | 84 | 1011.3 |
| 20260507192509 | 55 | 86 | 0.0 | 0.9 | 0.00 | 0.14 | 0.14 | 84 | 1011.4 |
| 20260507192007 | 55 | 55 | 0.0 | 0.9 | 0.00 | 0.14 | 0.14 | 83 | 1011.4 |
| 20260507191520 | 55 | 146 | 0.0 | 0.9 | 0.00 | 0.14 | 0.14 | 82 | 1011.3 |
| 20260507191010 | 55 | 146 | 0.0 | 2.6 | 0.00 | 0.14 | 0.14 | 80 | 1011.4 |
| 20260507190509 | 55 | 122 | 0.0 | 3.5 | 0.00 | 0.14 | 0.14 | 79 | 1011.5 |
| 20260507190024 | 55 | 149 | 0.0 | 3.5 | 0.00 | 0.14 | 0.14 | 79 | 1011.4 |
| 20260507185509 | 55 | 105 | 0.0 | 3.5 | 0.00 | 0.14 | 0.14 | 79 | 1011.4 |
| 20260507185008 | 55 | 194 | 0.0 | 3.5 | 0.00 | 0.14 | 0.14 | 76 | 1011.5 |
| 20260507184522 | 55 | 130 | 0.0 | 3.5 | 0.00 | 0.14 | 0.14 | 76 | 1011.4 |
| 20260507184010 | 56 | 5 | 0.9 | 3.5 | 0.00 | 0.14 | 0.14 | 76 | 1011.4 |
| 20260507183507 | 56 | 148 | 0.9 | 3.5 | 0.00 | 0.14 | 0.14 | 76 | 1011.3 |
| 20260507183022 | 56 | 199 | 0.0 | 4.3 | 0.00 | 0.14 | 0.14 | 76 | 1011.3 |
| 20260507182509 | 56 | 136 | 0.9 | 4.3 | 0.00 | 0.14 | 0.14 | 76 | 1011.3 |
| 20260507182007 | 56 | 153 | 0.0 | 4.3 | 0.00 | 0.14 | 0.14 | 76 | 1011.5 |
| 20260507181524 | 56 | 198 | 0.9 | 4.3 | 0.00 | 0.14 | 0.14 | 77 | 1011.6 |
| 20260507181017 | 56 | 134 | 1.7 | 6.1 | 0.00 | 0.14 | 0.14 | 78 | 1011.5 |
| 20260507180506 | 56 | 128 | 0.0 | 6.1 | 0.00 | 0.14 | 0.14 | 77 | 1011.5 |
| 20260507180003 | 56 | 205 | 1.7 | 6.1 | 0.00 | 0.14 | 0.14 | 79 | 1011.5 |
| 20260507175511 | 56 | 163 | 1.7 | 6.1 | 0.00 | 0.14 | 0.14 | 78 | 1011.4 |
| 20260507175006 | 56 | 136 | 0.0 | 4.3 | 0.00 | 0.14 | 0.14 | 79 | 1011.5 |
| 20260507174513 | 56 | 11 | 0.0 | 4.3 | 0.00 | 0.14 | 0.14 | 79 | 1011.6 |
| 20260507174002 | 56 | 225 | 0.0 | 2.6 | 0.00 | 0.14 | 0.14 | 77 | 1011.6 |
| 20260507173511 | 56 | 225 | 0.0 | 4.3 | 0.00 | 0.14 | 0.14 | 77 | 1011.7 |
| 20260507173006 | 56 | 301 | 0.0 | 4.3 | 0.00 | 0.14 | 0.14 | 78 | 1011.8 |
| 20260507172503 | 56 | 294 | 0.0 | 4.3 | 0.00 | 0.14 | 0.14 | 81 | 1012.0 |
| 20260507172010 | 56 | 129 | 0.0 | 4.3 | 0.00 | 0.14 | 0.14 | 81 | 1011.8 |
| 20260507171505 | 56 | 184 | 0.0 | 5.2 | 0.00 | 0.14 | 0.14 | 82 | 1011.7 |
| 20260507171007 | 56 | 105 | 1.7 | 5.2 | 0.00 | 0.14 | 0.14 | 82 | 1011.8 |
| 20260507170509 | 56 | 188 | 0.9 | 5.2 | 0.00 | 0.14 | 0.14 | 84 | 1012.0 |
| 20260507170006 | 55 | 144 | 0.0 | 3.5 | 0.00 | 0.14 | 0.14 | 84 | 1012.0 |
| 20260507165510 | 55 | 295 | 0.0 | 3.5 | 0.00 | 0.14 | 0.14 | 84 | 1012.1 |
| 20260507165007 | 55 | 155 | 0.0 | 3.5 | 0.00 | 0.14 | 0.14 | 86 | 1012.2 |
| 20260507164507 | 55 | 194 | 0.9 | 3.5 | 0.00 | 0.14 | 0.14 | 86 | 1012.3 |